Dewpoint
44 44 44 47 47 47 46 41 33 43 49 35 35 32 36 34 33 35 33 37 33 33 30 26 27 29 30 22 22 19 22 23 13 7 10 10 15 18 22 24 16 19 18 9
42 44 44 45 46 47 43 35 33 41 45 29 30 31 33 37 34 34 35 33 35 37 34 33 29 27 26 20 21 22 22 25 22 18 14 12 10 13 19 22 22 17 18 9
41 43 44 45 46 46 44 34 30 33 37 37 31 28 29 34 38 35 33 36 38 37 35 37 36 34 27 29 29 38 32 27 23 23 20 19 12 12 15 15 16 9 12 9
41 42 43 44 45 46 41 32 31 33 29 31 33 32 28 27 30 36 36 34 35 36 34 35 35 35 32 29 30 28 31 27 25 26 26 17 14 10 12 11 11 12 10 9
42 42 42 43 44 44 41 31 32 33 30 29 31 32 32 28 27 31 33 35 35 36 35 36 33 34 33 31 33 29 32 30 28 25 26 15 12 12 12 12 10 8 9 11
42 42 42 43 43 43 36 35 38 35 32 29 28 27 29 28 33 33 31 34 35 33 35 37 37 38 38 37 34 33 32 28 23 23 18 15 16 17 13 16 18 19 12 15
40 42 42 42 42 43 38 37 38 33 27 30 28 28 29 28 29 31 33 35 33 33 37 37 38 38 38 38 36 36 30 29 30 26 19 19 23 17 16 17 16 18 17 19
40 40 40 41 42 42 40 40 36 34 27 28 27 28 29 29 30 30 30 32 35 37 35 32 30 30 31 34 36 36 36 28 28 24 22 22 22 18 17 16 16 20 18 24
41 40 40 40 40 41 41 41 40 36 30 29 33 29 31 29 30 30 31 35 39 38 34 30 24 21 24 26 29 35 33 34 30 27 23 20 21 19 21 19 15 27 25 25
39 39 41 42 41 42 41 40 42 38 31 33 33 31 30 33 33 30 31 33 35 38 32 29 24 22 26 23 24 24 27 28 28 26 24 24 25 22 23 14 26 28 27 27
38 39 40 40 42 42 40 39 42 38 34 32 34 36 36 35 35 30 34 34 35 34 30 29 29 28 27 25 24 25 25 24 24 27 24 21 25 23 22 29 30 29 29 29
38 38 39 40 41 41 41 37 42 42 37 33 38 37 36 35 36 35 36 33 34 34 32 32 30 30 29 26 23 24 25 30 26 27 27 28 31 28 31 31 30 30 30 28
38 37 37 37 40 40 40 40 40 40 35 34 35 33 38 41 41 40 34 35 36 37 37 33 31 27 28 26 28 24 25 26 31 27 29 29 32 31 31 30 30 30 30 25
38 37 37 38 38 39 40 38 40 39 36 29 29 38 35 39 41 40 39 36 40 39 38 34 33 28 27 24 25 26 30 28 29 27 30 30 31 30 31 30 30 28 25 23
37 38 37 37 39 40 40 39 39 40 35 30 32 37 39 40 40 39 40 38 37 36 33 33 31 31 27 28 27 28 27 27 28 28 31 31 31 32 31 29 27 25 22 21
38 38 38 38 38 39 39 33 38 40 39 33 29 34 37 39 41 40 39 39 38 35 33 33 32 28 31 29 26 26 27 29 30 28 32 31 32 30 28 26 25 23 22 21
38 38 39 39 40 39 33 30 39 41 40 32 30 30 36 37 37 38 37 39 37 35 33 32 31 26 27 26 22 24 29 29 31 31 30 28 28 26 25 24 23 23 20 19
39 39 40 41 40 39 36 38 41 39 39 36 30 28 31 37 33 32 35 33 34 33 33 30 30 31 29 23 24 30 31 31 31 30 30 29 25 23 22 21 20 19 18 18
39 39 40 40 38 35 36 39 40 40 38 31 31 27 26 34 34 34 33 34 30 33 28 28 30 28 24 22 31 31 31 30 30 26 25 24 23 21 20 19 19 17 17 17
39 39 33 29 36 40 41 39 34 35 36 36 30 34 28 32 33 31 31 30 28 27 27 28 27 22 25 28 32 31 31 28 26 25 23 22 20 20 19 18 18 17 17 17
36 32 30 37 41 39 34 31 30 31 29 32 31 32 30 35 30 28 29 27 27 23 24 26 23 22 25 33 32 31 30 28 28 29 26 24 22 20 18 17 17 17 16 17
34 37 40 39 36 33 27 22 27 27 25 29 29 32 33 32 32 30 29 25 24 18 25 25 22 27 28 32 31 30 29 29 27 26 24 23 21 20 18 18 17 16 16 17
39 34 33 30 29 22 20 15 22 24 27 28 30 30 31 30 29 26 26 22 22 26 23 19 21 25 29 30 28 28 27 26 24 23 22 21 20 19 19 17 17 17 16 15
28 24 24 26 21 23 23 23 24 28 29 29 29 29 29 29 27 25 22 24 24 20 19 20 24 27 28 28 27 26 24 24 24 22 21 20 20 20 19 18 17 15 13 11
25 25 14 18 23 26 28 29 28 29 30 30 29 28 29 26 24 24 23 22 20 21 21 24 25 28 27 27 26 24 23 22 22 23 21 19 17 17 15 14 16 14 11 10
26 25 23 27 27 28 29 25 27 30 30 30 29 25 23 22 23 22 20 20 18 21 23 25 26 26 26 26 25 25 23 23 21 19 18 17 15 15 14 12 12 11 11 9
26 28 31 31 31 29 30 28 28 30 29 25 24 19 19 24 21 19 22 22 21 26 27 27 26 25 25 24 22 19 19 18 17 16 16 13 13 12 12 12 9 11 10 9
Lifted_Index
3 3 3 3 3 4 4 4 4 4 4 4 4 4 3 3 3 2 2 1 1 2 2 2 3 3 3 2 1 0 -0 -0 -0 1 2 3 3 3 2 2 2 2 2 2
3 3 2 2 2 3 3 3 3 3 3 4 4 4 3 2 2 2 1 1 1 1 1 1 2 2 2 2 1 1 0 0 0 1 2 3 2 2 2 2 2 1 1 2
2 2 1 1 1 1 2 2 2 2 2 3 4 4 3 2 1 1 0 0 -0 -0 0 1 1 1 1 1 1 1 1 1 1 1 1 1 1 2 2 2 2 2 2 2
1 1 1 1 1 1 1 1 1 1 1 2 3 3 3 2 1 1 0 -0 -0 -0 -0 0 0 1 1 1 1 1 2 2 1 1 1 1 1 2 3 3 3 3 3 3
1 1 1 1 0 0 1 1 1 1 1 1 2 2 2 2 1 1 0 0 -0 -0 -0 -0 0 1 1 1 1 2 2 2 1 1 1 2 2 2 3 3 3 3 3 3
1 0 0 0 0 1 1 1 1 1 1 1 1 1 1 1 1 1 0 0 0 0 0 0 1 1 2 2 2 2 2 2 2 2 2 2 2 2 3 3 3 3 3 3
0 -0 0 1 1 1 1 1 1 1 1 1 1 1 1 1 1 0 0 0 0 0 0 0 1 2 2 2 2 2 2 2 2 2 2 2 2 2 2 2 2 3 3 2
-0 -0 0 1 1 1 1 2 1 1 1 1 1 0 0 0 0 0 0 1 1 1 1 1 1 2 2 3 2 2 2 2 2 2 2 2 2 3 2 2 2 2 2 2
-0 -0 0 1 1 1 1 2 2 1 1 1 1 1 0 -0 -0 0 1 1 1 1 1 1 1 2 2 2 2 2 2 1 1 1 1 1 2 3 3 2 2 2 3 3
-0 -0 -0 0 0 0 1 1 2 2 2 2 1 1 0 0 -0 0 0 0 0 0 1 1 1 1 1 1 2 1 1 0 -0 0 1 1 2 3 3 2 2 3 4 4
-0 -0 -0 -0 0 0 1 1 2 2 2 2 2 1 1 0 0 0 0 0 -0 -0 0 0 0 0 1 1 1 1 1 0 -0 -0 0 1 3 3 3 3 4 4 5 5
-0 -0 -0 -0 -0 0 1 1 1 2 2 2 2 2 2 1 1 1 1 0 0 -0 -0 -0 -0 0 0 0 1 1 1 1 0 0 1 2 3 3 4 4 5 5 5 5
0 0 0 0 0 0 1 1 1 2 2 2 2 2 2 1 1 1 1 1 1 0 -0 -0 -0 -0 0 0 1 1 1 1 1 1 1 2 3 4 5 5 5 5 5 5
1 1 1 0 0 0 1 1 2 2 2 2 2 2 1 1 1 1 2 2 1 1 1 0 0 0 0 0 1 1 1 1 1 1 2 3 4 5 5 5 5 5 6 6
1 1 1 1 1 1 1 1 2 2 2 2 1 1 1 1 1 2 2 2 2 2 1 1 1 0 0 1 1 1 1 1 1 2 3 4 5 5 6 5 5 5 5 6
1 1 1 1 1 1 1 2 2 2 2 2 1 1 1 1 2 2 2 2 2 2 2 2 1 1 1 1 1 1 2 2 3 3 4 4 5 5 5 5 5 5 6 6
1 1 1 1 1 2 2 2 2 2 2 2 1 1 1 2 2 2 2 2 2 2 2 2 1 1 1 1 1 1 2 3 4 4 4 5 5 5 5 5 5 5 6 7
1 1 1 1 2 2 2 2 2 2 2 2 2 2 2 2 2 3 3 3 3 3 3 2 2 1 1 2 2 2 3 4 4 5 5 5 5 5 5 5 5 5 6 7
1 1 2 2 3 3 3 3 3 2 2 2 2 2 2 2 3 3 3 3 3 3 3 2 2 2 2 2 3 3 3 4 4 5 5 5 5 4 4 5 5 6 6 7
1 2 2 2 3 3 2 2 2 2 2 3 3 3 2 3 3 3 3 3 3 3 3 3 2 2 3 3 3 3 4 4 4 4 5 5 4 4 4 5 6 7 7 7
2 2 2 2 2 2 2 2 2 2 2 3 3 3 3 3 3 3 3 3 3 3 3 3 3 3 3 4 4 4 4 4 4 5 5 5 5 5 5 6 7 7 7 7
1 1 1 2 2 2 2 2 2 2 2 2 2 3 3 3 3 3 3 3 3 3 4 3 3 4 4 4 4 4 4 4 5 5 5 5 5 5 6 7 7 7 7 7
1 1 1 2 2 3 3 3 3 2 2 2 2 2 3 3 3 3 3 3 4 4 4 4 4 5 5 5 4 4 4 5 5 6 6 6 6 6 6 7 7 7 7 8
1 1 2 2 3 4 4 3 3 2 3 3 3 3 3 3 3 3 4 4 4 4 4 4 5 5 5 5 4 4 5 5 6 6 6 6 6 6 7 7 7 7 7 8
2 2 2 3 4 4 3 3 3 3 3 3 3 3 3 3 3 4 4 4 4 3 4 4 5 5 5 4 4 4 5 5 6 6 6 6 6 6 7 7 7 7 7 8
2 3 3 3 4 3 3 3 3 3 3 4 4 3 3 3 4 4 4 4 4 4 4 5 5 5 5 4 4 4 5 5 5 6 6 6 6 6 7 7 7 8 8 8
3 3 4 4 3 3 3 4 4 4 4 4 3 3 3 4 4 4 4 4 4 4 5 5 5 5 5 4 4 4 4 5 5 5 6 6 6 6 7 7 7 8 8 9